Meteo Giornale » Osservazioni meteo Germania » Duesseldorf

ore: 07:20 - Osservazioni Meteo Duesseldorf
Lat. 51° 18' N Lon. 6° 46' E Alt. 45 metri s.l.m.

coperto

16 °C

Coperto

Temp. 24 Ore

15 °C

21 °C

Sud/Sud-Ovest

16.7 Km/h

Dew point 14 °C

Umidità 87 %

Visibilità  10 Km

Il sole sorge alle ore 06:46

Il sole tramonta alle ore 20:19

Data e Ora Cielo e Fenomeni T °C DP °C Um. % Pres. hPa Vis. km Vento km/h
Oggi h: 07:20 coperto Coperto 16 14 87 1019 10 S/SO 16.7
Oggi h: 06:50 coperto Coperto 16 14 87 1018 10 SO 14.8
Oggi h: 06:20 molto_nuvoloso Molto Nuvoloso 15 14 93 1018 10 SO 16.7
Oggi h: 05:50 poco_nuvoloso Poco Nuvoloso 15 14 93 1018 10 SO 14.8
Oggi h: 05:20 poco_nuvoloso Poco Nuvoloso 15 14 93 1018 10 S/SO 16.7
Oggi h: 04:50 poco_nuvoloso Poco Nuvoloso 15 14 93 1018 10 S/SO 14.8
Oggi h: 04:20 sereno Sereno 15 14 93 1017 10 S/SO 14.8
Oggi h: 03:50 sereno Sereno 15 14 93 1017 10 SO 13
Oggi h: 03:20 sereno Sereno 15 14 93 1017 10 S/SO 13
Oggi h: 02:50 sereno Sereno 15 14 93 1017 10 SO 14.8
Oggi h: 02:20 sereno Sereno 15 14 93 1017 10 SO 13
Oggi h: 01:50 sereno Sereno 15 13 87 1017 10 SO 13
Oggi h: 01:20 sereno Sereno 15 14 93 1017 10 SO 13
Oggi h: 00:50 sereno Sereno 16 14 87 1017 10 SO 16.7
Oggi h: 00:20 sereno Sereno 16 14 87 1017 10 SO 16.7
Ieri h: 23:50 sereno Sereno 15 14 93 1017 10 SO 13
Ieri h: 23:20 sereno Sereno 16 14 87 1017 10 SO 14.8
Ieri h: 22:50 sereno Sereno 16 14 87 1016 10 SO 14.8
Ieri h: 22:20 sereno Sereno 16 14 87 1016 10 SO 14.8
Ieri h: 21:50 sereno Sereno 17 14 82 1016 10 SO 14.8
Ieri h: 21:20 poco_nuvoloso Poco Nuvoloso 17 14 82 1015 10 SO 14.8
Ieri h: 20:50 sereno Sereno 18 14 77 1015 10 SO 16.7
Ieri h: 20:20 sereno Sereno 18 14 77 1014 10 SO 18.5
Ieri h: 19:50 sereno Sereno 19 14 72 1014 10 SO 24
Ieri h: 19:20 sereno Sereno 19 14 72 1013 10 O/SO 20.3
Ieri h: 18:50 poco_nuvoloso Poco Nuvoloso 19 14 72 1013 10 SO 22.2
Ieri h: 18:20 nuvoloso_piovaschi Pioggia 19 13 68 1013 10 O/SO 24
Ieri h: 17:50 nuvoloso_piovaschi Pioggia 20 13 64 1013 10 SO 29.6
Ieri h: 17:20 poco_nuvoloso Pioggia nelle vicinanze 19 13 68 1012 10 O/SO 29.6
Ieri h: 16:50 nuvoloso_piovaschi Pioggia 20 13 64 1012 10 O/SO 27.8
Ieri h: 16:20 sereno Sereno 20 13 64 1012 10 SO 33.3
Ieri h: 15:50 poco_nuvoloso Pioggia nelle vicinanze 20 14 68 1011 10 O/SO 20.3
Ieri h: 15:20 nuvoloso_piovaschi Pioggia 19 14 72 1011 10 O 24
Ieri h: 14:50 nuvoloso_piovaschi Pioggia 19 14 72 1011 10 O 22.2
Ieri h: 14:20 poco_nuvoloso Pioggia nelle vicinanze 21 14 64 1010 10 S/SO 27.8
Ieri h: 13:50 nuvoloso_piovaschi Pioggia 19 14 72 1011 10 O/SO 22.2
Ieri h: 13:20 poco_nuvoloso Pioggia nelle vicinanze 21 13 60 1011 10 SO 35.2
Ieri h: 12:50 nuvoloso_piovaschi Pioggia 19 14 72 1011 10 SO 37
Ieri h: 12:20 nuvoloso_piovaschi Pioggia 20 13 64 1010 10 SO 35.2
Ieri h: 11:50 molto_nuvoloso Molto Nuvoloso 20 13 64 1010 10 S/SO 25.9
Ieri h: 11:20 molto_nuvoloso Pioggia nelle vicinanze 20 13 64 1010 10 S/SO 27.8
Ieri h: 10:50 nuvoloso Nuvoloso 20 13 64 1010 10 S/SO 29.6
Ieri h: 10:20 molto_nuvoloso Pioggia nelle vicinanze 19 13 68 1011 10 SO 27.8
Ieri h: 09:50 molto_nuvoloso Molto Nuvoloso 19 14 72 1011 10 SO 27.8
Ieri h: 09:20 nuvoloso_piovaschi Pioggia 19 14 72 1011 10 S/SO 24
Ieri h: 08:50 nuvoloso Nuvoloso 19 15 77 1011 10 S/SO 27.8
Ieri h: 08:20 sereno Sereno 19 14 72 1010 10 S/SO 24
Ieri h: 07:50 sereno Sereno 18 14 77 1010 10 S/SO 20.3